Погода в Ниамее

Нигер     13°31′28″N   2°06′31″E
темп.,
°C
ветер,
м/с
пор.,
м/с
влажн.,
%
обл.,
%
осадки,
мм/ч
давл.,
гПа
погр.,
м
10 августа, ср
ср1001:00+28ю466829 0.0 1011373
04:00+27ююз467442 0.0 1010339
07:00+26юз467923 0.0 1012381
10:00+29ююз66625 0.0 1012841
13:00+33ююз55457 0.0 10101712
16:00+35юз543893 0.0 10082407
19:00+32юз66500 0.0 10091014
22:00+30юз685911 0.0 1011547
11 августа, чт
чт1101:00+28юз586712 0.0 1011458
04:00+27юз59713 0.0 1011446
07:00+26зюз61072100 0.0 1012474
10:00+30зюз675598 0.0 1013818
13:00+34зюз554279 0.0 10101558
16:00+35зюз6438100 0.0 10071985
19:00+34зюз5541100 0.0 10071352
22:00+31юз795238 0.1 1010554
12 августа, пт
пт1201:00+29юз8126093 0.1 1009669
04:00+26св6573100 3.9 1012565
07:00+23ю6878100 19.1 1012352
10:00+25ююв3471100 0.1 1013308
13:00+28ююз3360100 0.4 1012696
16:00+29юз4455100 0.0 1010895
19:00+28юз436293 0.0 1011659
22:00+26юз3369100 0.0 1012344
13 августа, сб
сб1301:00+25ююз467487 0.0 1011310
04:00+24ююз457732 0.0 1011278
07:00+24юз47825 0.0 1013306
10:00+28юз556336 0.0 1014653
13:00+32юз55476 0.0 10121414
16:00+34зюз544216 0.0 10091854
19:00+33зюз444530 0.0 10091155
22:00+30юз57586 0.0 1012509
14 августа, вс
вс1401:00+28юз686756 0.0 1011429
04:00+26юз61073100 0.0 1010420
07:00+26зюз71175100 0.0 1010463
10:00+29зюз8962100 0.0 1010654
13:00+33з7748100 0.0 10081267
16:00+34з5545100 0.0 10061726
19:00+33юз5647100 0.0 1005697
22:00+24ю121683100 4.6 1007326